• Join FlightAware (Why Join?)
  • Login
  • US Flag 
10:21AM EDT


 

Airport Tracker/Info


-or-


 

Live Flight TrackerFlight Track Log ✈ AAL963 ✈ 16-Jun-2013 ✈ KDFW - SBGR / GRU

Flight Track Log - Related Links

Times and Time Zones

All times are in EDT time to prevent confusion due to time zone crossing. See the AAL963 flight status page for this flight to view local times or setup timezone preferences in your user account.

Time Position Orientation Groundspeed Altitude Reporting Facility
EDT Latitude Longitude Course Direction KTS MPH feet Rate Location/Type
09:21PM 32.8630 -97.0220 163° South 2,100  Level FlightAware
09:21PM 32.8410 -97.0150 165° South 2,400 1,620 Climbing FlightAware
09:22PM 32.8270 -97.0100 163° South 2,600 1,740 Climbing FlightAware
09:22PM 32.7970 -96.9990 163° South 3,100 1,860 Climbing FlightAware
09:22PM 32.7840 -96.9950 165° South 3,500 2,040 Climbing FlightAware
09:23PM 32.7500 -96.9840 165° South 4,500 2,040 Climbing FlightAware
09:23PM 32.7230 -96.9610 144° Southeast 5,600 2,040 Climbing FlightAware
09:23PM 32.7160 -96.9450 117° Southeast 6,000 1,920 Climbing FlightAware
09:24PM 32.7150 -96.9320 95° East 6,200 1,920 Climbing FlightAware
09:24PM 32.7230 -96.8770 80° East 293 337 7,400 2,100 Climbing FlightAware
09:24PM 32.7250 -96.8520 85° East 293 337 8,000 2,220 Climbing FlightAware
09:25PM 32.7250 -96.7910 90° East 309 356 9,400 1,980 Climbing FlightAware
09:26PM 32.7300 -96.7140 86° East 309 356 10,800 1,500 Climbing FlightAware
09:26PM 32.7400 -96.6420 81° East 345 397 11,600 1,140 Climbing FlightAware
09:27PM 32.7460 -96.5550 85° East 377 434 12,400 1,500 Climbing FlightAware
09:28PM 32.7520 -96.4710 85° East 378 435 13,700 1,860 Climbing FlightAware
09:29PM 32.7530 -96.3750 89° East 399 459 15,000 1,740 Climbing FlightAware
09:29PM 32.7490 -96.2850 93° East 405 466 16,200 1,680 Climbing FlightAware
09:30PM 32.7390 -96.1880 97° East 426 490 17,400 1,740 Climbing FlightAware
09:31PM 32.7230 -96.0900 101° East 433 498 18,700 1,620 Climbing FlightAware
09:31PM 32.7070 -95.9886 101° East 446 513 19,700 1,500 Climbing FlightAware ADS-B
09:32PM 32.6867 -95.8611 101° East 456 525 21,100 1,620 Climbing FlightAware ADS-B
09:33PM 32.6771 -95.8009 101° East 457 526 21,800 1,620 Climbing FlightAware ADS-B
09:34PM 32.6596 -95.6778 100° East 467 537 23,100 1,500 Climbing FlightAware ADS-B
09:34PM 32.6604 -95.5919 89° East 470 541 23,900 180 Climbing FlightAware ADS-B
09:35PM 32.6590 -95.4800 91° East 468 539 23,400 1,200 Descending FlightAware
09:36PM 32.6790 -95.3261 81° East 492 566 26,000 2,400 Climbing FlightAware ADS-B
09:36PM 32.6859 -95.2236 85° East 498 573 26,700 1,080 Climbing FlightAware ADS-B
09:38PM 32.6990 -95.0190 86° East 510 587 28,100 1,080 Climbing FlightAware
09:38PM 32.7058 -94.9160 85° East 512 589 28,800 1,020 Climbing FlightAware ADS-B
09:39PM 32.7050 -94.7900 90° East 523 602 29,500 960 Climbing FlightAware ADS-B
09:39PM 32.6966 -94.7486 104° East 528 608 29,800 1,080 Climbing FlightAware ADS-B
09:40PM 32.6615 -94.6411 111° Southeast 530 610 30,500 960 Climbing FlightAware ADS-B
09:40PM 32.6299 -94.5491 112° Southeast 534 615 31,000 840 Climbing FlightAware ADS-B
09:41PM 32.5963 -94.4514 112° Southeast 535 616 31,500 1,140 Climbing FlightAware ADS-B
09:42PM 32.5581 -94.3403 112° Southeast 534 615 32,500 1,200 Climbing FlightAware ADS-B
09:42PM 32.5289 -94.2554 112° Southeast 534 615 33,000 1,140 Climbing FlightAware ADS-B
09:43PM 32.4924 -94.1490 112° Southeast 531 611 33,900 1,500 Climbing FlightAware ADS-B
09:43PM 32.4631 -94.0644 112° Southeast 520 598 34,800 960 Climbing FlightAware ADS-B
09:44PM 32.4334 -93.9786 112° Southeast 513 590 35,000 180 Climbing FlightAware ADS-B
09:45PM 32.4037 -93.8929 112° Southeast 513 590 35,000  Level FlightAware ADS-B
09:45PM 32.3757 -93.8123 112° Southeast 513 590 35,000  Level FlightAware ADS-B
09:46PM 32.3486 -93.7344 112° Southeast 513 590 35,000  Level FlightAware ADS-B
09:46PM 32.3198 -93.6522 112° Southeast 513 590 35,000  Level FlightAware ADS-B
09:47PM 32.2915 -93.5716 113° Southeast 513 590 35,000  Level FlightAware ADS-B
09:50PM 32.0689 -92.9715 114° Southeast 35,000  Level FlightAware ADS-B
09:51PM 32.0100 -92.8369 117° Southeast 512 589 35,000  Level FlightAware ADS-B
09:53PM 31.8219 -92.5700 130° Southeast 35,000  Level FlightAware ADS-B
09:54PM 31.7726 -92.5041 131° Southeast 512 589 35,000  Level FlightAware ADS-B
09:54PM 31.7251 -92.4406 131° Southeast 510 587 35,000  Level FlightAware ADS-B
09:55PM 31.6701 -92.3527 126° Southeast 473 544 35,000  Level FlightAware ADS-B
09:55PM 31.6617 -92.3413 131° Southeast 515 593 35,000  Level FlightAware ADS-B
09:56PM 31.6139 -92.2773 131° Southeast 516 594 35,000  Level FlightAware ADS-B
09:56PM 31.5650 -92.2124 131° Southeast 515 593 35,000  Level FlightAware ADS-B
09:57PM 31.5168 -92.1481 131° Southeast 514 592 35,000  Level FlightAware ADS-B
09:57PM 31.4583 -92.0709 132° Southeast 508 585 35,000  Level FlightAware ADS-B
09:58PM 31.4116 -92.0092 132° Southeast 506 582 35,000  Level FlightAware ADS-B
09:59PM 31.2955 -91.8682 134° Southeast 498 573 35,000  Level FlightAware ADS-B
10:00PM 31.2447 -91.8239 134° Southeast 501 577 35,000  Level Houston Center
10:01PM 31.1608 -91.6964 128° Southeast 503 579 35,000  Level Houston Center
10:02PM 31.1397 -91.5353 99° East 505 581 35,000 -180 Level Houston Center
10:03PM 31.1269 -91.3772 95° East 504 580 34,700 -600 Descending Houston Center
10:04PM 31.1117 -91.2167 96° East 502 578 33,900  Descending Houston Center
10:10PM 30.9310 -90.2420 96° East 504 580 34,800 120 Climbing FlightAware
10:10PM 30.8890 -90.1420 116° Southeast 500 575 35,000 120 Climbing FlightAware
10:11PM 30.8680 -90.0930 117° Southeast 500 575 35,000  Level FlightAware
10:12PM 30.8050 -89.9420 116° Southeast 499 574 35,000  Level FlightAware
10:12PM 30.7650 -89.8470 116° Southeast 499 574 35,000  Level FlightAware
10:13PM 30.7180 -89.7360 116° Southeast 497 572 35,000  Level FlightAware
10:14PM 30.6780 -89.6390 116° Southeast 496 571 35,000  Level FlightAware
10:15PM 30.6310 -89.5290 116° Southeast 500 575 35,000  Level FlightAware
10:15PM 30.5910 -89.4330 116° Southeast 503 579 35,000  Level FlightAware
10:16PM 30.5510 -89.3410 117° Southeast 505 581 35,000  Level FlightAware
10:17PM 30.5010 -89.2220 116° Southeast 501 577 35,000  Level FlightAware
10:17PM 30.4650 -89.1370 116° Southeast 500 575 35,000  Level FlightAware
10:18PM 30.4180 -89.0270 116° Southeast 499 574 35,000  Level FlightAware
10:19PM 30.3760 -88.9310 117° Southeast 499 574 35,000  Level FlightAware
10:19PM 30.3320 -88.8290 117° Southeast 499 574 35,000  Level FlightAware
10:20PM 30.2910 -88.7330 116° Southeast 496 571 35,000  Level FlightAware
10:21PM 30.2450 -88.6260 116° Southeast 493 567 35,000  Level FlightAware
10:22PM 30.2040 -88.5320 117° Southeast 493 567 35,000  Level FlightAware
10:22PM 30.1620 -88.4340 116° Southeast 494 568 35,000  Level FlightAware
10:23PM 30.1150 -88.3260 117° Southeast 498 573 35,000  Level FlightAware
10:24PM 30.0720 -88.2300 117° Southeast 498 573 35,000  Level FlightAware
10:24PM 30.0290 -88.1300 116° Southeast 498 573 35,000  Level FlightAware
10:25PM 29.9850 -88.0300 117° Southeast 497 572 35,000  Level FlightAware
10:26PM 29.9420 -87.9330 117° Southeast 498 573 35,000  Level FlightAware
10:26PM 29.9000 -87.8380 117° Southeast 497 572 35,000  Level FlightAware
10:27PM 29.8560 -87.7380 117° Southeast 497 572 35,000  Level FlightAware
10:28PM 29.8120 -87.6400 117° Southeast 496 571 35,000  Level FlightAware
10:29PM 29.7670 -87.5390 117° Southeast 496 571 35,000  Level FlightAware
10:29PM 29.7300 -87.4560 117° Southeast 495 570 35,000  Level FlightAware
10:31PM 29.6800 -87.3440 117° Southeast 495 570 35,000  Level FlightAware
10:31PM 29.6780 -87.3370 108° East 496 571 35,000  Level FlightAware
10:32PM 29.6480 -87.2690 117° Southeast 496 571 35,000  Level FlightAware
10:33PM 29.5070 -86.9570 117° Southeast 495 570 35,000  Level FlightAware
10:33PM 29.4750 -86.8850 117° Southeast 495 570 35,000  Level FlightAware
10:34PM 29.4310 -86.7860 117° Southeast 495 570 35,000  Level FlightAware
10:35PM 29.3960 -86.7080 117° Southeast 495 570 35,000  Level FlightAware
10:35PM 29.3640 -86.6360 117° Southeast 495 570 35,000  Level FlightAware
10:36PM 29.3220 -86.5410 117° Southeast 495 570 35,000  Level FlightAware
10:37PM 29.2890 -86.4670 117° Southeast 495 570 35,000  Level FlightAware
10:38PM 29.2470 -86.3720 117° Southeast 495 570 35,000  Level FlightAware
10:38PM 29.2150 -86.3000 117° Southeast 495 570 35,000  Level FlightAware
10:39PM 29.1720 -86.2030 117° Southeast 495 570 35,000  Level FlightAware
10:40PM 29.1390 -86.1290 117° Southeast 495 570 35,000  Level FlightAware
10:41PM 29.0960 -86.0320 117° Southeast 495 570 35,000  Level FlightAware
10:41PM 29.0660 -85.9650 117° Southeast 495 570 35,000  Level FlightAware
10:42PM 29.0230 -85.8690 117° Southeast 495 570 35,000  Level FlightAware
10:46PM 28.6510 -85.1090 119° Southeast 504 580 35,000  Level FlightAware
10:47PM 28.5950 -84.9910 118° Southeast 506 582 35,000  Level FlightAware
10:47PM 28.5540 -84.9050 118° Southeast 505 581 35,000  Level FlightAware
10:48PM 28.5070 -84.8070 119° Southeast 505 581 35,000  Level FlightAware
10:49PM 28.4620 -84.7130 119° Southeast 502 578 35,000  Level FlightAware
10:50PM 28.4120 -84.6080 118° Southeast 500 575 35,000  Level FlightAware
10:50PM 28.3660 -84.5120 119° Southeast 500 575 35,000  Level FlightAware
10:51PM 28.3180 -84.4130 119° Southeast 500 575 35,000  Level FlightAware
10:52PM 28.2700 -84.3130 119° Southeast 500 575 35,000  Level FlightAware
10:53PM 28.2140 -84.1990 119° Southeast 496 571 35,000  Level FlightAware
10:54PM 28.1410 -84.0600 121° Southeast 498 573 35,000  Level FlightAware
10:54PM 28.0940 -83.9680 120° Southeast 498 573 35,000  Level FlightAware
10:55PM 28.0470 -83.8760 120° Southeast 497 572 35,000  Level FlightAware
10:56PM 27.9940 -83.7740 120° Southeast 498 573 35,000  Level FlightAware
10:56PM 27.9480 -83.6830 120° Southeast 497 572 35,000  Level FlightAware
10:57PM 27.8950 -83.5810 120° Southeast 498 573 35,000  Level FlightAware
10:58PM 27.8470 -83.4890 121° Southeast 498 573 35,000  Level FlightAware
10:58PM 27.8010 -83.4000 120° Southeast 497 572 35,000  Level FlightAware
10:59PM 27.7490 -83.2990 120° Southeast 497 572 35,000  Level FlightAware
11:00PM 27.7020 -83.2090 121° Southeast 498 573 35,000  Level FlightAware
11:01PM 27.6490 -83.1080 121° Southeast 496 571 35,000  Level FlightAware
11:01PM 27.6030 -83.0210 121° Southeast 496 571 35,000  Level FlightAware
11:02PM 27.5490 -82.9180 121° Southeast 499 574 35,000  Level FlightAware
11:03PM 27.4990 -82.8220 120° Southeast 499 574 35,000  Level FlightAware
11:03PM 27.4480 -82.7250 121° Southeast 500 575 35,000  Level FlightAware
11:04PM 27.4010 -82.6360 121° Southeast 499 574 35,000  Level FlightAware
11:05PM 27.3510 -82.5420 121° Southeast 500 575 35,000  Level FlightAware
11:05PM 27.2990 -82.4440 121° Southeast 499 574 35,000  Level FlightAware
11:06PM 27.2510 -82.3540 121° Southeast 501 577 35,000  Level FlightAware
11:07PM 27.2070 -82.2720 121° Southeast 501 577 35,000  Level FlightAware
11:08PM 27.1500 -82.1650 121° Southeast 500 575 35,000  Level FlightAware
11:08PM 27.0900 -82.0520 121° Southeast 35,000  Level FlightAware
11:09PM 27.0330 -81.9460 121° Southeast 499 574 35,000  Level FlightAware
11:10PM 26.9980 -81.8810 121° Southeast 496 571 35,000  Level FlightAware
11:10PM 26.9410 -81.7760 121° Southeast 489 563 35,000  Level FlightAware
11:11PM 26.8890 -81.6800 121° Southeast 494 568 35,000  Level FlightAware
11:12PM 26.8350 -81.5800 121° Southeast 494 568 35,000  Level FlightAware
11:13PM 26.7880 -81.4930 121° Southeast 495 570 35,000  Level FlightAware
11:13PM 26.7460 -81.4150 121° Southeast 497 572 35,000  Level FlightAware
11:14PM 26.6860 -81.3060 122° Southeast 497 572 35,000  Level FlightAware
11:15PM 26.6390 -81.2180 121° Southeast 498 573 35,000  Level FlightAware
11:15PM 26.5870 -81.1240 122° Southeast 495 570 35,000  Level FlightAware
11:16PM 26.5370 -81.0320 121° Southeast 495 570 35,000  Level FlightAware
11:17PM 26.4880 -80.9430 122° Southeast 496 571 35,000  Level FlightAware
11:18PM 26.4350 -80.8480 122° Southeast 496 571 35,000  Level FlightAware
11:18PM 26.3870 -80.7590 121° Southeast 497 572 35,000  Level FlightAware
11:19PM 26.3320 -80.6600 122° Southeast 498 573 35,000  Level FlightAware
11:20PM 26.2860 -80.5770 122° Southeast 501 577 35,000 -240 Level FlightAware
11:20PM 26.2340 -80.4840 122° Southeast 499 574 34,700 -780 Descending FlightAware
11:21PM 26.1800 -80.3860 122° Southeast 502 578 33,900 -1,020 Descending FlightAware
11:22PM 26.1300 -80.2960 122° Southeast 498 573 33,300 -660 Descending FlightAware
11:22PM 26.0780 -80.2030 122° Southeast 495 570 33,000 -240 Descending FlightAware
11:23PM 26.0280 -80.1140 122° Southeast 495 570 33,000  Level FlightAware
11:24PM 25.9760 -80.0200 122° Southeast 495 570 33,000  Level FlightAware
11:25PM 25.9250 -79.9300 122° Southeast 496 571 33,000  Level FlightAware
11:25PM 25.8760 -79.8430 122° Southeast 493 567 33,000  Level FlightAware
11:26PM 25.8270 -79.7560 122° Southeast 493 567 33,000  Level FlightAware
11:27PM 25.7710 -79.6580 122° Southeast 492 566 33,000  Level FlightAware
11:27PM 25.7230 -79.5720 122° Southeast 492 566 33,000  Level FlightAware
11:28PM 25.6700 -79.4790 122° Southeast 495 570 33,000  Level FlightAware
11:29PM 25.6160 -79.3830 122° Southeast 494 568 33,000  Level FlightAware
11:29PM 25.5660 -79.2970 123° Southeast 494 568 33,000  Level FlightAware
11:30PM 25.5040 -79.2100 128° Southeast 492 566 33,000  Level FlightAware
11:31PM 25.4530 -79.1450 131° Southeast 493 567 33,000  Level FlightAware
11:31PM 25.3890 -79.0630 131° Southeast 493 567 33,000  Level FlightAware
11:32PM 25.3350 -78.9940 131° Southeast 492 566 33,000  Level FlightAware
11:33PM 25.2610 -78.9010 131° Southeast 493 567 33,000  Level FlightAware
11:34PM 25.1580 -78.7700 131° Southeast 492 566 33,000  Level FlightAware
11:35PM 25.0840 -78.6750 131° Southeast 491 565 33,000  Level FlightAware
11:36PM 25.0230 -78.5980 131° Southeast 491 565 33,000  Level FlightAware
11:37PM 24.9325 -78.4858 131° Southeast 492 566 33,000  Level Miami Center
11:38PM 24.8394 -78.3725 132° Southeast 492 566 33,000  Level Miami Center
11:39PM 24.7508 -78.2594 131° Southeast 492 566 33,000  Level Miami Center
11:40PM 24.6600 -78.1461 131° Southeast 492 566 33,000  Level Miami Center
11:41PM 24.5667 -78.0311 132° Southeast 492 566 33,000  Level Miami Center
11:42PM 24.4778 -77.9206 131° Southeast 492 566 33,000  Level Miami Center
11:43PM 24.3886 -77.8058 130° Southeast 492 566 33,000  Level Miami Center
11:44PM 24.2953 -77.6933 132° Southeast 492 566 33,000  Level Miami Center
11:45PM 24.2039 -77.5789 131° Southeast 492 566 33,000  Level Miami Center
11:46PM 24.1125 -77.4644 131° Southeast 492 566 33,000  Level Miami Center
11:47PM 24.0189 -77.3525 132° Southeast 492 566 33,000  Level Miami Center
11:48PM 23.9292 -77.2386 131° Southeast 492 566 33,000  Level Miami Center
11:49PM 23.8458 -77.1383 132° Southeast 492 566 33,000  Level Miami Center
11:50PM 23.7519 -77.0269 133° Southeast 492 566 33,000  Level Miami Center
11:51PM 23.6581 -76.9133 132° Southeast 492 566 33,000  Level Miami Center
11:52PM 23.5639 -76.7978 132° Southeast 497 572 33,000  Level Miami Center
11:53PM 23.4719 -76.6822 131° Southeast 497 572 33,000  Level Miami Center
11:54PM 23.3778 -76.5736 133° Southeast 497 572 33,000  Level Miami Center
11:55PM 23.2833 -76.4586 132° Southeast 497 572 33,000  Level Miami Center
11:56PM 23.1911 -76.3481 132° Southeast 497 572 33,000  Level Miami Center
11:57PM 23.0944 -76.2311 132° Southeast 502 578 33,000  Level Miami Center
11:58PM 23.0000 -76.1186 132° Southeast 502 578 33,000  Level Miami Center
11:59PM 22.9075 -76.0086 132° Southeast 502 578 33,000  Level Miami Center
12:00AM 22.8106 -75.8922 132° Southeast 507 583 33,000  Level Miami Center
12:01AM 22.7158 -75.7803 133° Southeast 507 583 33,000  Level Miami Center
12:02AM 22.6231 -75.6686 132° Southeast 507 583 33,000  Level Miami Center
12:03AM 22.5303 -75.5569 132° Southeast 502 578 33,000  Level Miami Center
12:04AM 22.4331 -75.4456 133° Southeast 502 578 33,000  Level Miami Center
12:05AM 22.3403 -75.3344 132° Southeast 502 578 33,000  Level Miami Center
12:06AM 22.2450 -75.2211 132° Southeast 502 578 33,000  Level Miami Center
12:07AM 22.1519 -75.1122 133° Southeast 502 578 33,000  Level Miami Center
12:08AM 22.0503 -75.0061 136° Southeast 502 578 33,000  Level Miami Center
12:09AM 21.9447 -74.9044 138° Southeast 502 578 33,000  Level Miami Center
12:10AM 21.8411 -74.8056 138° Southeast 502 578 33,000 -60 Level Miami Center
12:11AM 21.7247 -74.6956 139° Southeast 502 578 32,900 -60 Descending Miami Center
12:12AM 21.6208 -74.5922 137° Southeast 507 583 32,900  Level Miami Center
12:13AM 21.5150 -74.4958 140° Southeast 507 583 33,000  Climbing Miami Center
12:14AM 21.4089 -74.3953 139° Southeast 507 583 33,000  Level Miami Center
12:15AM 21.3031 -74.2947 138° Southeast 512 589 33,000 -60 Level Miami Center
12:16AM 21.1989 -74.1964 139° Southeast 507 583 32,900  Descending Miami Center
12:17AM 21.0886 -74.0942 139° Southeast 512 589 33,000  Climbing Miami Center
12:18AM 20.9844 -73.9961 139° Southeast 512 589 32,900 -60 Descending Miami Center
12:19AM 20.8761 -73.8964 139° Southeast 512 589 32,900  Level Miami Center
12:20AM 20.7700 -73.7967 139° Southeast 512 589 32,900  Level Miami Center
12:21AM 20.6636 -73.6992 139° Southeast 512 589 32,900  Level Miami Center
12:22AM 20.5553 -73.5997 139° Southeast 512 589 32,900  Level Miami Center
12:23AM 20.4489 -73.5006 139° Southeast 512 589 33,000  Climbing Miami Center
12:24AM 20.3422 -73.4014 139° Southeast 512 589 33,000  Level Miami Center
12:25AM 20.2358 -73.3047 140° Southeast 517 595 33,000 -60 Level Miami Center
12:26AM 20.1272 -73.2058 139° Southeast 512 589 32,900 60 Descending Miami Center
12:28AM 19.9321 -73.0278 142° Southeast  Level FlightAware Approximate
12:35AM 19.1763 -72.4135 142° Southeast  Level FlightAware Approximate
12:36AM 19.0681 -72.3262 143° Southeast  Level FlightAware Approximate
12:37AM 18.9599 -72.2390 143° Southeast  Level FlightAware Approximate
12:38AM 18.8517 -72.1519 143° Southeast  Level FlightAware Approximate
12:39AM 18.7435 -72.0650 143° Southeast  Level FlightAware Approximate
12:40AM 18.6351 -71.9781 143° Southeast  Level FlightAware Approximate
12:41AM 18.5333 -71.8833 137° Southeast  Level FlightAware Approximate
12:42AM 18.4225 -71.8007 146° Southeast  Level FlightAware Approximate
12:43AM 18.3101 -71.7201 145° Southeast  Level FlightAware Approximate
12:44AM 18.2000 -71.6360 144° Southeast  Level FlightAware Approximate
12:45AM 18.0900 -71.5518 144° Southeast  Level FlightAware Approximate
12:46AM 17.9800 -71.4676 144° Southeast  Level FlightAware Approximate
12:47AM 17.8700 -71.3836 144° Southeast  Level FlightAware Approximate
12:48AM 17.7600 -71.2996 144° Southeast  Level FlightAware Approximate
12:49AM 17.6509 -71.2143 143° Southeast  Level FlightAware Approximate
12:50AM 17.5426 -71.1280 143° Southeast  Level FlightAware Approximate
12:51AM 17.4342 -71.0419 143° Southeast  Level FlightAware Approximate
12:52AM 17.3258 -70.9559 143° Southeast  Level FlightAware Approximate
12:53AM 17.2171 -70.8698 143° Southeast  Level FlightAware Approximate
12:54AM 17.1078 -70.7846 144° Southeast  Level FlightAware Approximate
12:55AM 16.9977 -70.7011 144° Southeast  Level FlightAware Approximate
12:56AM 16.8876 -70.6177 144° Southeast  Level FlightAware Approximate
12:57AM 16.7774 -70.5344 144° Southeast  Level FlightAware Approximate
12:58AM 16.6672 -70.4512 144° Southeast  Level FlightAware Approximate
12:59AM 16.5569 -70.3681 144° Southeast  Level FlightAware Approximate
01:00AM 16.4466 -70.2850 144° Southeast  Level FlightAware Approximate
01:01AM 16.3363 -70.2021 144° Southeast  Level FlightAware Approximate
01:02AM 16.2260 -70.1193 144° Southeast  Level FlightAware Approximate
01:03AM 16.1156 -70.0365 144° Southeast  Level FlightAware Approximate
01:04AM 16.0052 -69.9539 144° Southeast  Level FlightAware Approximate
01:05AM 15.8949 -69.8711 144° Southeast  Level FlightAware Approximate
01:06AM 15.7846 -69.7884 144° Southeast  Level FlightAware Approximate
01:07AM 15.6743 -69.7057 144° Southeast  Level FlightAware Approximate
01:08AM 15.5639 -69.6232 144° Southeast  Level FlightAware Approximate
01:09AM 15.4536 -69.5407 144° Southeast  Level FlightAware Approximate
01:10AM 15.3431 -69.4584 144° Southeast  Level FlightAware Approximate
01:11AM 15.2327 -69.3761 144° Southeast  Level FlightAware Approximate
01:11AM 14.8810 -69.1000 144° Southeast 513 590 37,000  Level FlightAware
01:12AM 15.1222 -69.2939 144° Southeast  Level FlightAware Approximate
01:12AM 14.8160 -69.0520 144° Southeast 513 590 37,000  Level FlightAware
01:13AM 14.7410 -68.9960 144° Southeast 513 590 37,000  Level FlightAware
01:13AM 14.6830 -68.9520 144° Southeast 513 590 37,000  Level FlightAware
01:14AM 14.5810 -68.8760 144° Southeast 513 590 37,000  Level FlightAware
01:15AM 14.5230 -68.8320 144° Southeast 513 590 37,000  Level FlightAware
01:16AM 14.4440 -68.7730 144° Southeast 513 590 37,000  Level FlightAware
01:16AM 14.3850 -68.7290 144° Southeast 513 590 37,000  Level FlightAware
01:17AM 14.3050 -68.6690 144° Southeast 513 590 37,000  Level FlightAware
01:18AM 14.1140 -68.5460 148° Southeast 509 586 37,000  Level FlightAware
01:19AM 14.0280 -68.4840 145° Southeast 509 586 37,000  Level FlightAware
01:19AM 13.9520 -68.4290 145° Southeast 510 587 37,000  Level FlightAware
01:20AM 13.8660 -68.3680 145° Southeast 510 587 37,000  Level FlightAware
01:21AM 13.7880 -68.3120 145° Southeast 510 587 37,000  Level FlightAware
01:21AM 13.7030 -68.2510 145° Southeast 510 587 37,000  Level FlightAware
01:22AM 13.6250 -68.1950 145° Southeast 510 587 37,000  Level FlightAware
01:23AM 13.5430 -68.1360 145° Southeast 510 587 37,000  Level FlightAware
01:23AM 13.4630 -68.0790 145° Southeast 510 587 37,000  Level FlightAware
01:24AM 13.3770 -68.0170 145° Southeast 509 586 37,000  Level FlightAware
01:25AM 13.3000 -67.9630 146° Southeast 510 587 37,000  Level FlightAware
01:26AM 13.2180 -67.9040 145° Southeast 510 587 37,000  Level FlightAware
01:26AM 13.1310 -67.8420 145° Southeast 509 586 37,000  Level FlightAware
01:27AM 13.0550 -67.7880 145° Southeast 508 585 37,000  Level FlightAware
01:28AM 12.9690 -67.7270 145° Southeast 508 585 37,000  Level FlightAware
01:28AM 12.8900 -67.6710 145° Southeast 508 585 37,000  Level FlightAware
01:29AM 12.8080 -67.6130 145° Southeast 508 585 37,000  Level FlightAware
01:30AM 12.7310 -67.5580 145° Southeast 509 586 37,000  Level FlightAware
01:30AM 12.6480 -67.5010 146° Southeast 509 586 37,000  Level FlightAware
01:31AM 12.5670 -67.4430 145° Southeast 509 586 37,000  Level FlightAware
01:32AM 12.4800 -67.3820 146° Southeast 508 585 37,000  Level FlightAware
01:33AM 12.4640 -67.3710 146° Southeast 508 585 37,000  Level FlightAware
01:33AM 12.3220 -67.2710 145° Southeast 506 582 37,000  Level FlightAware
01:34AM 12.2370 -67.2120 146° Southeast 506 582 37,000  Level FlightAware
01:35AM 12.1590 -67.1570 145° Southeast 506 582 37,000  Level FlightAware
01:35AM 12.0730 -67.0970 146° Southeast 505 581 37,000  Level FlightAware
01:36AM 11.9970 -67.0440 146° Southeast 504 580 37,000  Level FlightAware
01:37AM 11.8980 -66.9740 145° Southeast 504 580 37,000  Level FlightAware
01:38AM 11.8380 -66.9310 145° Southeast 504 580 37,000  Level FlightAware
01:38AM 11.7590 -66.8740 145° Southeast 504 580 37,000  Level FlightAware
01:39AM 11.7000 -66.8320 145° Southeast 504 580 37,000  Level FlightAware
01:40AM 11.6210 -66.7750 145° Southeast 504 580 37,000  Level FlightAware
01:40AM 11.5620 -66.7340 146° Southeast 504 580 37,000  Level FlightAware
01:41AM 11.4830 -66.6770 145° Southeast 504 580 37,000  Level FlightAware
01:42AM 11.4230 -66.6340 145° Southeast 504 580 37,000  Level FlightAware
01:43AM 11.3640 -66.5920 145° Southeast 504 580 37,000  Level FlightAware
01:43AM 11.2850 -66.5350 145° Southeast 504 580 37,000  Level FlightAware
01:44AM 11.2230 -66.4910 145° Southeast 504 580 37,000  Level FlightAware
01:45AM 11.1450 -66.4360 145° Southeast 504 580 37,000  Level FlightAware
01:45AM 11.0870 -66.3940 145° Southeast 504 580 37,000  Level FlightAware
01:46AM 11.0090 -66.3380 145° Southeast 504 580 37,000  Level FlightAware
01:49AM 10.7474 -66.1500 145° Southeast  Level FlightAware Approximate
01:50AM 10.6361 -66.0701 145° Southeast  Level FlightAware Approximate
01:51AM 10.5247 -65.9902 145° Southeast  Level FlightAware Approximate
01:52AM 10.4135 -65.9106 145° Southeast  Level FlightAware Approximate
01:53AM 10.3023 -65.8310 145° Southeast  Level FlightAware Approximate
01:54AM 10.1911 -65.7514 145° Southeast  Level FlightAware Approximate
01:55AM 10.0798 -65.6720 145° Southeast  Level FlightAware Approximate
01:56AM 9.9685 -65.5925 145° Southeast  Level FlightAware Approximate
01:57AM 9.8573 -65.5132 145° Southeast  Level FlightAware Approximate
01:58AM 9.7459 -65.4339 145° Southeast  Level FlightAware Approximate
01:59AM 9.6346 -65.3546 145° Southeast  Level FlightAware Approximate
02:00AM 9.5233 -65.2754 145° Southeast  Level FlightAware Approximate
02:01AM 9.4119 -65.1962 145° Southeast  Level FlightAware Approximate
02:02AM 9.3005 -65.1171 145° Southeast  Level FlightAware Approximate
02:03AM 9.1891 -65.0380 145° Southeast  Level FlightAware Approximate
02:04AM 9.0777 -64.9590 145° Southeast  Level FlightAware Approximate
02:05AM 8.9663 -64.8801 145° Southeast  Level FlightAware Approximate
02:06AM 8.8548 -64.8012 145° Southeast  Level FlightAware Approximate
02:07AM 8.7434 -64.7223 145° Southeast  Level FlightAware Approximate
02:08AM 8.6319 -64.6435 145° Southeast  Level FlightAware Approximate
02:09AM 8.5204 -64.5647 145° Southeast  Level FlightAware Approximate
02:10AM 8.4089 -64.4860 145° Southeast  Level FlightAware Approximate
02:11AM 8.2974 -64.4073 145° Southeast  Level FlightAware Approximate
02:12AM 8.1858 -64.3287 145° Southeast  Level FlightAware Approximate
02:13AM 8.0743 -64.2501 145° Southeast  Level FlightAware Approximate
02:14AM 7.9627 -64.1715 145° Southeast  Level FlightAware Approximate
02:15AM 7.8511 -64.0930 145° Southeast  Level FlightAware Approximate
02:16AM 7.7395 -64.0146 145° Southeast  Level FlightAware Approximate
02:17AM 7.6279 -63.9361 145° Southeast  Level FlightAware Approximate
02:18AM 7.5163 -63.8578 145° Southeast  Level FlightAware Approximate
02:19AM 7.4046 -63.7794 145° Southeast  Level FlightAware Approximate
02:20AM 7.2929 -63.7011 145° Southeast  Level FlightAware Approximate
02:21AM 7.1813 -63.6229 145° Southeast  Level FlightAware Approximate
02:22AM 7.0696 -63.5446 145° Southeast  Level FlightAware Approximate
02:23AM 6.9579 -63.4664 145° Southeast  Level FlightAware Approximate
02:24AM 6.8462 -63.3883 145° Southeast  Level FlightAware Approximate
02:25AM 6.7344 -63.3102 145° Southeast  Level FlightAware Approximate
02:26AM 6.6227 -63.2321 145° Southeast  Level FlightAware Approximate
02:27AM 6.5110 -63.1541 145° Southeast  Level FlightAware Approximate
02:28AM 6.3992 -63.0761 145° Southeast  Level FlightAware Approximate
02:29AM 6.2874 -62.9981 145° Southeast  Level FlightAware Approximate
02:30AM 6.1757 -62.9202 145° Southeast  Level FlightAware Approximate
02:31AM 6.0638 -62.8423 145° Southeast  Level FlightAware Approximate
02:32AM 5.9520 -62.7644 145° Southeast  Level FlightAware Approximate
02:33AM 5.8402 -62.6865 145° Southeast  Level FlightAware Approximate
02:34AM 5.7284 -62.6087 145° Southeast  Level FlightAware Approximate
02:35AM 5.6165 -62.5309 145° Southeast  Level FlightAware Approximate
02:36AM 5.5047 -62.4532 145° Southeast  Level FlightAware Approximate
02:37AM 5.3928 -62.3755 145° Southeast  Level FlightAware Approximate
02:38AM 5.2810 -62.2978 145° Southeast  Level FlightAware Approximate
02:39AM 5.1691 -62.2201 145° Southeast  Level FlightAware Approximate
02:40AM 5.0572 -62.1425 145° Southeast  Level FlightAware Approximate
02:41AM 4.9453 -62.0649 145° Southeast  Level FlightAware Approximate
02:42AM 4.8334 -61.9873 145° Southeast  Level FlightAware Approximate
02:43AM 4.7215 -61.9097 145° Southeast  Level FlightAware Approximate
02:44AM 4.6096 -61.8322 145° Southeast  Level FlightAware Approximate
02:45AM 4.4976 -61.7547 145° Southeast  Level FlightAware Approximate
02:46AM 4.3857 -61.6772 145° Southeast  Level FlightAware Approximate
02:47AM 4.2737 -61.5998 145° Southeast  Level FlightAware Approximate
02:48AM 4.1596 -61.5251 147° Southeast  Level FlightAware Approximate
02:49AM 4.0452 -61.4514 147° Southeast  Level FlightAware Approximate
02:50AM 3.9307 -61.3778 147° Southeast  Level FlightAware Approximate
02:51AM 3.8163 -61.3041 147° Southeast  Level FlightAware Approximate
02:52AM 3.7018 -61.2305 147° Southeast  Level FlightAware Approximate
02:53AM 3.5873 -61.1569 147° Southeast  Level FlightAware Approximate
02:54AM 3.4728 -61.0833 147° Southeast  Level FlightAware Approximate
02:55AM 3.3584 -61.0098 147° Southeast  Level FlightAware Approximate
02:56AM 3.2439 -60.9362 147° Southeast  Level FlightAware Approximate
02:57AM 3.1294 -60.8627 147° Southeast  Level FlightAware Approximate
02:58AM 3.0149 -60.7892 147° Southeast  Level FlightAware Approximate
02:59AM 2.9004 -60.7157 147° Southeast  Level FlightAware Approximate
03:00AM 2.7822 -60.6486 153° Southeast  Level FlightAware Approximate
03:01AM 2.6611 -60.5866 153° Southeast  Level FlightAware Approximate
03:02AM 2.5400 -60.5247 153° Southeast  Level FlightAware Approximate
03:03AM 2.4189 -60.4627 153° Southeast  Level FlightAware Approximate
03:04AM 2.2977 -60.4008 153° Southeast  Level FlightAware Approximate
03:05AM 2.1766 -60.3388 153° Southeast  Level FlightAware Approximate
03:06AM 2.0555 -60.2769 153° Southeast  Level FlightAware Approximate
03:07AM 1.9344 -60.2150 153° Southeast  Level FlightAware Approximate
03:08AM 1.8133 -60.1531 153° Southeast  Level FlightAware Approximate
03:09AM 1.6922 -60.0912 153° Southeast  Level FlightAware Approximate
03:10AM 1.5710 -60.0293 153° Southeast  Level FlightAware Approximate
03:11AM 1.4499 -59.9674 153° Southeast  Level FlightAware Approximate
03:12AM 1.3288 -59.9056 153° Southeast  Level FlightAware Approximate
03:13AM 1.2076 -59.8437 153° Southeast  Level FlightAware Approximate
03:14AM 1.0865 -59.7818 153° Southeast  Level FlightAware Approximate
03:15AM 0.9654 -59.7200 153° Southeast  Level FlightAware Approximate
03:16AM 0.8443 -59.6581 153° Southeast  Level FlightAware Approximate
03:17AM 0.7231 -59.5963 153° Southeast  Level FlightAware Approximate
03:18AM 0.6020 -59.5344 153° Southeast  Level FlightAware Approximate
03:19AM 0.4808 -59.4726 153° Southeast  Level FlightAware Approximate
03:20AM 0.3597 -59.4108 153° Southeast  Level FlightAware Approximate
03:21AM 0.2386 -59.3489 153° Southeast  Level FlightAware Approximate
03:22AM 0.1174 -59.2871 153° Southeast  Level FlightAware Approximate
03:23AM -0.0037 -59.2252 153° Southeast  Level FlightAware Approximate
03:24AM -0.1249 -59.1634 153° Southeast  Level FlightAware Approximate
03:25AM -0.2460 -59.1016 153° Southeast  Level FlightAware Approximate
03:26AM -0.3672 -59.0397 153° Southeast  Level FlightAware Approximate
03:27AM -0.4883 -58.9779 153° Southeast  Level FlightAware Approximate
03:28AM -0.6094 -58.9160 153° Southeast  Level FlightAware Approximate
03:29AM -0.7306 -58.8542 153° Southeast  Level FlightAware Approximate
03:30AM -0.8517 -58.7923 153° Southeast  Level FlightAware Approximate
03:30AM -1.2520 -58.6450 153° Southeast 491 565 37,000  Level FlightAware
03:31AM -0.9728 -58.7305 153° Southeast  Level FlightAware Approximate
03:31AM -1.3670 -58.5870 153° Southeast 490 564 37,000  Level FlightAware
03:32AM -1.0940 -58.6686 153° Southeast  Level FlightAware Approximate
03:32AM -1.4260 -58.5580 154° Southeast 490 564 37,000  Level FlightAware
03:33AM -1.5050 -58.5180 153° Southeast 490 564 37,000  Level FlightAware
03:34AM -1.5890 -58.4750 153° Southeast 490 564 37,000  Level FlightAware
03:34AM -1.6500 -58.4430 152° Southeast 490 564 37,000  Level FlightAware
03:35AM -1.7550 -58.3900 153° Southeast 490 564 37,000  Level FlightAware
03:36AM -1.8150 -58.3590 153° Southeast 490 564 37,000  Level FlightAware
03:37AM -1.8980 -58.3170 153° Southeast 490 564 37,000  Level FlightAware
03:37AM -1.9580 -58.2860 153° Southeast 490 564 37,000  Level FlightAware
03:38AM -2.0420 -58.2440 153° Southeast 490 564 37,000  Level FlightAware
03:39AM -2.1040 -58.2120 153° Southeast 490 564 37,000  Level FlightAware
03:39AM -2.1880 -58.1690 153° Southeast 490 564 37,000  Level FlightAware
03:40AM -2.2510 -58.1370 153° Southeast 490 564 37,000  Level FlightAware
03:41AM -2.3340 -58.0950 153° Southeast 490 564 37,000  Level FlightAware
03:41AM -2.3770 -58.0730 153° Southeast 490 564 37,000  Level FlightAware
03:44AM -2.6572 -57.9288 153° Southeast  Level FlightAware Approximate
03:45AM -2.7782 -57.8666 153° Southeast  Level FlightAware Approximate
03:46AM -2.8992 -57.8043 153° Southeast  Level FlightAware Approximate
03:47AM -3.0201 -57.7420 153° Southeast  Level FlightAware Approximate
03:48AM -3.1411 -57.6797 153° Southeast  Level FlightAware Approximate
03:49AM -3.2620 -57.6174 153° Southeast  Level FlightAware Approximate
03:50AM -3.3830 -57.5551 153° Southeast  Level FlightAware Approximate
03:51AM -3.5039 -57.4927 153° Southeast  Level FlightAware Approximate
03:52AM -3.6248 -57.4304 153° Southeast  Level FlightAware Approximate
03:53AM -3.7457 -57.3680 153° Southeast  Level FlightAware Approximate
03:54AM -3.8667 -57.3056 153° Southeast  Level FlightAware Approximate
03:55AM -3.9876 -57.2432 153° Southeast  Level FlightAware Approximate
03:56AM -4.1085 -57.1808 153° Southeast  Level FlightAware Approximate
03:57AM -4.2294 -57.1183 153° Southeast  Level FlightAware Approximate
03:58AM -4.3503 -57.0559 153° Southeast  Level FlightAware Approximate
03:59AM -4.4712 -56.9934 153° Southeast  Level FlightAware Approximate
04:00AM -4.5921 -56.9309 153° Southeast  Level FlightAware Approximate
04:01AM -4.7130 -56.8684 153° Southeast  Level FlightAware Approximate
04:02AM -4.8339 -56.8058 153° Southeast  Level FlightAware Approximate
04:03AM -4.9548 -56.7432 153° Southeast  Level FlightAware Approximate
04:04AM -5.0757 -56.6806 153° Southeast  Level FlightAware Approximate
04:05AM -5.1965 -56.6180 153° Southeast  Level FlightAware Approximate
04:06AM -5.3174 -56.5554 153° Southeast  Level FlightAware Approximate
04:07AM -5.4383 -56.4927 153° Southeast  Level FlightAware Approximate
04:08AM -5.5591 -56.4300 153° Southeast  Level FlightAware Approximate
04:09AM -5.6800 -56.3673 153° Southeast  Level FlightAware Approximate
04:10AM -5.8008 -56.3046 153° Southeast  Level FlightAware Approximate
04:11AM -5.9216 -56.2418 153° Southeast  Level FlightAware Approximate
04:12AM -6.0424 -56.1790 153° Southeast  Level FlightAware Approximate
04:13AM -6.1632 -56.1162 153° Southeast  Level FlightAware Approximate
04:14AM -6.2841 -56.0533 153° Southeast  Level FlightAware Approximate
04:15AM -6.4049 -55.9904 153° Southeast  Level FlightAware Approximate
04:16AM -6.5257 -55.9275 153° Southeast  Level FlightAware Approximate
04:17AM -6.6464 -55.8646 153° Southeast  Level FlightAware Approximate
04:18AM -6.7672 -55.8016 153° Southeast  Level FlightAware Approximate
04:19AM -6.8880 -55.7386 153° Southeast  Level FlightAware Approximate
04:20AM -7.0087 -55.6756 153° Southeast  Level FlightAware Approximate
04:21AM -7.1295 -55.6125 153° Southeast  Level FlightAware Approximate
04:22AM -7.2502 -55.5494 153° Southeast  Level FlightAware Approximate
04:23AM -7.3710 -55.4863 153° Southeast  Level FlightAware Approximate
04:24AM -7.4917 -55.4231 153° Southeast  Level FlightAware Approximate
04:25AM -7.6124 -55.3599 153° Southeast  Level FlightAware Approximate
04:26AM -7.7331 -55.2966 153° Southeast  Level FlightAware Approximate
04:27AM -7.8538 -55.2333 153° Southeast  Level FlightAware Approximate
04:28AM -7.9745 -55.1700 153° Southeast  Level FlightAware Approximate
04:29AM -8.0952 -55.1067 153° Southeast  Level FlightAware Approximate
04:30AM -8.2159 -55.0433 153° Southeast  Level FlightAware Approximate
04:31AM -8.3365 -54.9799 153° Southeast  Level FlightAware Approximate
04:32AM -8.4572 -54.9164 153° Southeast  Level FlightAware Approximate
04:33AM -8.5778 -54.8529 153° Southeast  Level FlightAware Approximate
04:34AM -8.6984 -54.7893 152° Southeast  Level FlightAware Approximate
04:35AM -8.8191 -54.7257 152° Southeast  Level FlightAware Approximate
04:36AM -8.9397 -54.6621 152° Southeast  Level FlightAware Approximate
04:37AM -9.0603 -54.5984 152° Southeast  Level FlightAware Approximate
04:38AM -9.1809 -54.5347 152° Southeast  Level FlightAware Approximate
04:39AM -9.3014 -54.4710 152° Southeast  Level FlightAware Approximate
04:40AM -9.4220 -54.4072 152° Southeast  Level FlightAware Approximate
04:41AM -9.5425 -54.3433 152° Southeast  Level FlightAware Approximate
04:42AM -9.6631 -54.2794 152° Southeast  Level FlightAware Approximate
04:43AM -9.7836 -54.2155 152° Southeast  Level FlightAware Approximate
04:44AM -9.9041 -54.1515 152° Southeast  Level FlightAware Approximate
04:45AM -10.0246 -54.0875 152° Southeast  Level FlightAware Approximate
04:46AM -10.1451 -54.0234 152° Southeast  Level FlightAware Approximate
04:47AM -10.2656 -53.9593 152° Southeast  Level FlightAware Approximate
04:48AM -10.3861 -53.8951 152° Southeast  Level FlightAware Approximate
04:49AM -10.5065 -53.8308 152° Southeast  Level FlightAware Approximate
04:50AM -10.6270 -53.7666 152° Southeast  Level FlightAware Approximate
04:51AM -10.7474 -53.7022 152° Southeast  Level FlightAware Approximate
04:52AM -10.8678 -53.6379 152° Southeast  Level FlightAware Approximate
04:53AM -10.9882 -53.5734 152° Southeast  Level FlightAware Approximate
04:54AM -11.1086 -53.5089 152° Southeast  Level FlightAware Approximate
04:55AM -11.2289 -53.4444 152° Southeast  Level FlightAware Approximate
04:56AM -11.3493 -53.3798 152° Southeast  Level FlightAware Approximate
04:57AM -11.4697 -53.3152 152° Southeast  Level FlightAware Approximate
04:58AM -11.5900 -53.2505 152° Southeast  Level FlightAware Approximate
04:59AM -11.7103 -53.1857 152° Southeast  Level FlightAware Approximate
05:00AM -11.8306 -53.1209 152° Southeast  Level FlightAware Approximate
05:01AM -11.9509 -53.0560 152° Southeast  Level FlightAware Approximate
05:02AM -12.0712 -52.9911 152° Southeast  Level FlightAware Approximate
05:03AM -12.1914 -52.9261 152° Southeast  Level FlightAware Approximate
05:04AM -12.3117 -52.8611 152° Southeast  Level FlightAware Approximate
05:05AM -12.4319 -52.7960 152° Southeast  Level FlightAware Approximate
05:06AM -12.5521 -52.7308 152° Southeast  Level FlightAware Approximate
05:07AM -12.6723 -52.6656 152° Southeast  Level FlightAware Approximate
05:08AM -12.7925 -52.6003 152° Southeast  Level FlightAware Approximate
05:09AM -12.9127 -52.5349 152° Southeast  Level FlightAware Approximate
05:10AM -13.0328 -52.4695 152° Southeast  Level FlightAware Approximate
05:11AM -13.1529 -52.4040 152° Southeast  Level FlightAware Approximate
05:12AM -13.2730 -52.3385 152° Southeast  Level FlightAware Approximate
05:13AM -13.3931 -52.2729 152° Southeast  Level FlightAware Approximate
05:14AM -13.5132 -52.2072 152° Southeast  Level FlightAware Approximate
05:15AM -13.6333 -52.1415 152° Southeast  Level FlightAware Approximate
05:16AM -13.7533 -52.0757 152° Southeast  Level FlightAware Approximate
05:17AM -13.8734 -52.0098 152° Southeast  Level FlightAware Approximate
05:18AM -13.9934 -51.9439 152° Southeast  Level FlightAware Approximate
05:19AM -14.1134 -51.8779 152° Southeast  Level FlightAware Approximate
05:20AM -14.2333 -51.8118 152° Southeast  Level FlightAware Approximate
05:21AM -14.3533 -51.7456 152° Southeast  Level FlightAware Approximate
05:22AM -14.4732 -51.6794 152° Southeast  Level FlightAware Approximate
05:23AM -14.5932 -51.6131 152° Southeast  Level FlightAware Approximate
05:24AM -14.7131 -51.5468 152° Southeast  Level FlightAware Approximate
05:25AM -14.8329 -51.4803 152° Southeast  Level FlightAware Approximate
05:26AM -14.9528 -51.4138 152° Southeast  Level FlightAware Approximate
05:27AM -15.0726 -51.3473 152° Southeast  Level FlightAware Approximate
05:28AM -15.1925 -51.2806 152° Southeast  Level FlightAware Approximate
05:29AM -15.3123 -51.2139 152° Southeast  Level FlightAware Approximate
05:30AM -15.4321 -51.1470 152° Southeast  Level FlightAware Approximate
05:31AM -15.5518 -51.0802 152° Southeast  Level FlightAware Approximate
05:32AM -15.6716 -51.0132 152° Southeast  Level FlightAware Approximate
05:33AM -15.7913 -50.9462 152° Southeast  Level FlightAware Approximate
05:34AM -15.9110 -50.8790 152° Southeast  Level FlightAware Approximate
05:35AM -16.0307 -50.8118 152° Southeast  Level FlightAware Approximate
05:36AM -16.1504 -50.7445 152° Southeast  Level FlightAware Approximate
05:37AM -16.2700 -50.6772 152° Southeast  Level FlightAware Approximate
05:38AM -16.3896 -50.6097 152° Southeast  Level FlightAware Approximate
05:39AM -16.5092 -50.5422 152° Southeast  Level FlightAware Approximate
05:40AM -16.6288 -50.4746 152° Southeast  Level FlightAware Approximate
05:41AM -16.7484 -50.4069 152° Southeast  Level FlightAware Approximate
05:42AM -16.8679 -50.3391 152° Southeast  Level FlightAware Approximate
05:43AM -16.9874 -50.2712 151° Southeast  Level FlightAware Approximate
05:44AM -17.1069 -50.2033 151° Southeast  Level FlightAware Approximate
05:45AM -17.2264 -50.1352 151° Southeast  Level FlightAware Approximate
05:45AM -17.8600 -50.1050 151° Southeast 496 571 41,000  Level FlightAware
05:46AM -17.3458 -50.0671 151° Southeast  Level FlightAware Approximate
05:46AM -17.9640 -50.0490 153° Southeast 496 571 41,000  Level FlightAware
05:47AM -18.0660 -49.9950 153° Southeast 496 571 41,000  Level FlightAware
05:47AM -18.1490 -49.9520 154° Southeast 496 571 41,000  Level FlightAware
05:48AM -18.2390 -49.9040 153° Southeast 496 571 41,000  Level FlightAware
05:49AM -18.3250 -49.8580 153° Southeast 497 572 41,000  Level FlightAware
05:49AM -18.4090 -49.8140 154° Southeast 496 571 41,000  Level FlightAware
05:50AM -18.4990 -49.7660 153° Southeast 496 571 41,000  Level FlightAware
05:51AM -18.5800 -49.7230 153° Southeast 498 573 41,000  Level FlightAware
05:52AM -18.6710 -49.6740 153° Southeast 498 573 41,000  Level FlightAware
05:52AM -18.7540 -49.6300 153° Southeast 499 574 41,000  Level FlightAware
05:53AM -18.8450 -49.5820 153° Southeast 499 574 41,000  Level FlightAware
05:54AM -18.9160 -49.5420 152° Southeast 500 575 41,000  Level FlightAware
05:54AM -19.0090 -49.4920 153° Southeast 497 572 41,000  Level FlightAware
05:55AM -19.1020 -49.4400 152° Southeast 497 572 41,000  Level FlightAware
05:56AM -19.1880 -49.3930 153° Southeast 497 572 41,000  Level FlightAware
05:56AM -19.2700 -49.3480 153° Southeast 496 571 41,000  Level FlightAware
05:57AM -19.3600 -49.2980 152° Southeast 494 568 41,000  Level FlightAware
05:58AM -19.4420 -49.2530 153° Southeast 494 568 41,000  Level FlightAware
05:59AM -19.5310 -49.2030 152° Southeast 492 566 41,000  Level FlightAware
05:59AM -19.6130 -49.1580 153° Southeast 492 566 41,000  Level FlightAware
06:00AM -19.6860 -49.1180 153° Southeast 492 566 41,000  Level FlightAware
06:01AM -19.7790 -49.0660 152° Southeast 492 566 41,000  Level FlightAware
06:01AM -19.8630 -49.0190 152° Southeast 492 566 41,000  Level FlightAware
06:02AM -19.9570 -48.9670 153° Southeast 492 566 41,000  Level FlightAware
06:03AM -20.0380 -48.9220 152° Southeast 494 568 41,000  Level FlightAware
06:03AM -20.1200 -48.8760 152° Southeast 495 570 41,000  Level FlightAware
06:04AM -20.2070 -48.8270 152° Southeast 496 571 41,000  Level FlightAware
06:05AM -20.2880 -48.7820 152° Southeast 496 571 41,000  Level FlightAware
06:06AM -20.3820 -48.7310 153° Southeast 495 570 41,000  Level FlightAware
06:06AM -20.4650 -48.6870 154° Southeast 496 571 41,000  Level FlightAware
06:07AM -20.5560 -48.6390 154° Southeast 498 573 41,000  Level FlightAware
06:08AM -20.6410 -48.5930 153° Southeast 499 574 41,000  Level FlightAware
06:08AM -20.7290 -48.5460 153° Southeast 499 574 41,000  Level FlightAware
06:09AM -20.8160 -48.5000 154° Southeast 498 573 41,000  Level FlightAware
06:10AM -20.8920 -48.4510 149° Southeast 507 583 41,000  Level FlightAware
06:10AM -20.9620 -48.3900 141° Southeast 508 585 41,000  Level FlightAware
06:11AM -21.0240 -48.3380 142° Southeast 507 583 41,000  Level FlightAware
06:12AM -21.1220 -48.2580 143° Southeast 507 583 41,000  Level FlightAware
06:13AM -21.2100 -48.1830 142° Southeast 506 582 41,000  Level FlightAware
06:13AM -21.2790 -48.1240 141° Southeast 506 582 41,000  Level FlightAware
06:14AM -21.3610 -48.0550 142° Southeast 506 582 41,000  Level FlightAware
06:15AM -21.4390 -47.9890 142° Southeast 507 583 41,000  Level FlightAware
06:15AM -21.5110 -47.9280 142° Southeast 507 583 41,000 -180 Level FlightAware
06:16AM -21.5930 -47.8570 141° Southeast 508 585 40,800 -1,080 Descending FlightAware
06:17AM -21.6680 -47.7930 142° Southeast 502 578 39,500 -2,460 Descending FlightAware
06:17AM -21.7380 -47.7330 141° Southeast 516 594 37,600 -2,460 Descending FlightAware
06:18AM -21.8290 -47.6550 141° Southeast 519 597 36,000 -2,400 Descending FlightAware
06:19AM -21.8940 -47.5990 141° Southeast 528 608 34,200 -3,120 Descending FlightAware
06:20AM -21.9850 -47.5220 142° Southeast 531 611 31,800 -2,760 Descending FlightAware
06:20AM -22.0680 -47.4500 141° Southeast 519 597 30,200 -2,220 Descending FlightAware
06:21AM -22.1400 -47.3870 141° Southeast 509 586 28,700 -2,340 Descending FlightAware
06:22AM -22.2230 -47.3160 142° Southeast 501 577 27,000 -2,160 Descending FlightAware
06:22AM -22.2940 -47.2540 141° Southeast 486 559 25,700 -2,280 Descending FlightAware
06:23AM -22.3620 -47.1950 141° Southeast 438 504 23,900 -2,340 Descending FlightAware
06:24AM -22.4260 -47.1400 142° Southeast 431 496 22,600 -1,800 Descending FlightAware
06:24AM -22.4700 -47.1020 141° Southeast 431 496 21,600 -1,620 Descending FlightAware
06:25AM -22.5390 -47.0420 141° Southeast 418 481 20,400 -1,440 Descending FlightAware
06:26AM -22.6020 -46.9990 148° Southeast 397 457 19,600 -1,740 Descending FlightAware
06:26AM -22.6770 -46.9560 152° Southeast 406 467 18,100 -1,140 Descending FlightAware
06:27AM -22.7470 -46.9150 152° Southeast 410 472 18,000 -1,020 Descending FlightAware
06:28AM -22.8370 -46.8640 152° Southeast 403 464 16,500 -2,040 Descending FlightAware
06:29AM -22.9100 -46.8240 153° Southeast 386 444 14,700 -3,000 Descending FlightAware
06:29AM -22.9480 -46.8030 153° Southeast 394 453 13,000 -3,600 Descending FlightAware
06:30AM -23.0420 -46.7500 153° Southeast 380 437 10,300 -2,340 Descending FlightAware
06:31AM -23.0860 -46.7260 153° Southeast 364 419 10,000 -300 Descending FlightAware
06:31AM -23.1410 -46.6940 152° Southeast 331 381 10,000 -120 Level FlightAware
06:31AM -23.1570 -46.6800 141° Southeast 324 373 9,900 -660 Descending FlightAware
06:32AM -23.1710 -46.6600 127° Southeast 315 362 9,700 -1,140 Descending FlightAware
06:32AM -23.1860 -46.6190 112° Southeast 295 339 9,100 -1,200 Descending FlightAware
06:33AM -23.1990 -46.5810 110° East 289 333 8,600 -900 Descending FlightAware
06:33AM -23.2050 -46.5640 111° Southeast 285 328 8,500 -1,200 Descending FlightAware
06:33AM -23.2170 -46.5280 110° East 284 327 7,800 -1,020 Descending FlightAware
06:34AM -23.2290 -46.4920 110° East 272 313 7,600 -600 Descending FlightAware
06:34AM -23.2360 -46.4710 110° East 261 300 7,400 -600 Descending FlightAware
06:35AM -23.2520 -46.4250 111° Southeast 263 303 7,100 -600 Descending FlightAware
06:35AM -23.2590 -46.4060 112° Southeast 261 300 6,900 -600 Descending FlightAware
06:35AM -23.2690 -46.3770 111° Southeast 249 287 6,700 -480 Descending FlightAware
06:36AM -23.2810 -46.3410 110° East 253 291 6,500 -420 Descending FlightAware
06:36AM -23.2910 -46.3250 124° Southeast 256 295 6,400 -420 Descending FlightAware
06:36AM -23.3060 -46.3140 146° Southeast 251 289 6,300 -540 Descending FlightAware
06:37AM -23.3370 -46.2990 156° South 231 266 6,000 -480 Descending FlightAware
06:37AM -23.3620 -46.2880 158° South 217 250 5,900 -360 Descending FlightAware
06:38AM -23.3870 -46.2950 194° South 185 213 5,700 -720 Descending FlightAware
06:38AM -23.3940 -46.3070 238° Southwest 169 194 5,400 -1,200 Descending FlightAware
06:38AM -23.3940 -46.3160 270° West 159 183 5,200 -1,320 Descending FlightAware
06:39AM -23.3990 -46.3390 257° West 151 174 4,500 -1,080 Descending FlightAware
06:39AM -23.4030 -46.3550 255° West 147 169 4,200 -720 Descending FlightAware
06:40AM -23.4100 -46.3820 254° West 146 168 3,800 -720 Descending FlightAware
06:40AM -23.4150 -46.3980 251° West 143 165 3,500 -780 Descending FlightAware
06:41AM -23.4200 -46.4190 255° West 138 159 3,100 -780 Descending FlightAware
06:41AM -23.4250 -46.4370 253° West 139 160 2,800 -840 Descending FlightAware
06:42AM -23.4300 -46.4560 254° West 145 167 2,400 -840 Descending FlightAware
06:42AM -23.4350 -46.4740 253° West 86 99 -4,800 Descending FlightAware
06:42AM -23.4370 -46.4800 250° West 38 44  Level FlightAware
06:43AM -23.4370 -46.4820 270° West 9 10  Level FlightAware